Regional Weather Roundup
Issued by NWS

Home | Current Version | Previous Version | Text Only | Print | Product List | Glossary On
Versions: 1 2 3 4 5 6 7 8 9 10 11 12 13 14 15 16 17 18 19 20 21 22 23 24 25 26 27
000
ASUS44 KLIX 271214
RWRLA
LOUISIANA WEATHER ROUNDUP
NATIONAL WEATHER SERVICE NEW ORLEANS LA
700 AM CDT TUE JUN 27 2017

NOTE: "FAIR" INDICATES FEW OR NO CLOUDS BELOW 12,000 FEET WITH NO
      SIGNIFICANT WEATHER AND/OR OBSTRUCTIONS TO VISIBILITY.
      SKY/WX - SKY CONDITION AND SIGNIFICANT WEATHER.
      TMP - AIR TEMPERATURE.    DP   - DEWPOINT TEMPERATURE.
      RH  - RELATIVE HUMIDITY.  PRES - PRESSURE.
      HX  - HEAT INDEX.         WCI  - WIND CHILL INDEX.

*  THESE STATIONS ARE NOT NWS OR FAA STATIONS AND ARE NOT UNDER
   NWS QUALITY CONTROL.

LAZ040-048-061>063-065-066-069-271300-
SOUTHEAST LOUISIANA

CITY           SKY/WX    TMP DP  RH WIND       PRES   REMARKS
N.O. INTL ARPT CLOUDY    78  75  90 CALM      30.01S
6HR MIN TEMP:  76; 6HR MAX TEMP:  79;

N.O. LAKEFRONT CLOUDY    80  74  81 E8        30.02S
6HR MIN TEMP:  79; 6HR MAX TEMP:  81;

N.O. DOWNTOWN*   N/A     79  72  79 VRB3        N/A
6HR MIN TEMP:  79; 6HR MAX TEMP:  83;

RESERVE*       FAIR      77  74  91 NE3       30.02S
6HR MIN TEMP:  77; 6HR MAX TEMP:  79;

SLIDELL        PTSUNNY   72  69  90 N3        30.02S
6HR MIN TEMP:  72; 6HR MAX TEMP:  74;

BATON ROUGE    CLOUDY    73  70  90 N3        30.03R
6HR MIN TEMP:  73; 6HR MAX TEMP:  75;

BOOTHVILLE     LGT RAIN  77  74  90 CALM      30.02S
6HR MIN TEMP:  77; 6HR MAX TEMP:  80; 6HR PCP:  0.04;

BELLE CHASSE   CLOUDY   N/A N/A N/A CALM      30.01S FOG
BOGALUSA*      FAIR      70  66  87 CALM      30.05S
6HR MIN TEMP:  70; 6HR MAX TEMP:  72;

GALLIANO*      PTSUNNY   76  73  91 CALM      30.01S
6HR MIN TEMP:  75; 6HR MAX TEMP:  76; 6HR PCP:  0.02;

NEW ROADS*       N/A     73  72  97 CALM      30.03R
6HR MIN TEMP:  73; 6HR MAX TEMP:  74;

GONZALES*      FAIR      74  71  90 CALM      30.01S
6HR MIN TEMP:  74; 6HR MAX TEMP:  75; 6HR PCP:  0.02;

HAMMOND*       CLOUDY    72  63  73 NE3       30.03S
HOUMA*         MOSUNNY   75  73  94 CALM      30.01S
PORT FOURCHON* SUNNY    N/A N/A N/A E7        30.01R

$$

LAZ041-044-053-054-271300-
SOUTHWEST LOUISIANA

CITY           SKY/WX    TMP DP  RH WIND       PRES   REMARKS
LAKE CHARLES   MOCLDY    75  75 100 NE5       29.99F
6HR MIN TEMP:  75; 6HR MAX TEMP:  76;

LAFAYETTE      CLOUDY    76  75  97 CALM      30.02R
6HR MIN TEMP:  75; 6HR MAX TEMP:  77;

PATTERSON      CLOUDY    76  75  97 CALM      30.02R
6HR MIN TEMP:  74; 6HR MAX TEMP:  76;

SALT POINT       N/A     75  74  96 CALM      30.00R
6HR MIN TEMP:  75; 6HR MAX TEMP:  76;

NEW IBERIA     CLOUDY    76  73  91 NE3       30.03R
6HR MIN TEMP:  75; 6HR MAX TEMP:  76;

CHENAULT AIRPK MOCLDY    74  73  98 NE3       30.00F
6HR MIN TEMP:  73; 6HR MAX TEMP:  74;


$$

LAZ027-028-271300-
CENTRAL LOUISIANA

CITY           SKY/WX    TMP DP  RH WIND       PRES   REMARKS
FORT POLK      NOT AVBL
ALEXANDRIA INT PTCLDY    72  70  93 N3        30.01S
6HR MIN TEMP:  70; 6HR MAX TEMP:  74;

ALEXANDRIA     CLOUDY    71  70  96 CALM      30.03S
6HR MIN TEMP:  69; 6HR MAX TEMP:  71;


$$

LAZ001-002-271300-
NORTHWEST LOUISIANA

CITY           SKY/WX    TMP DP  RH WIND       PRES   REMARKS
SHREVEPORT     MOCLDY    72  69  90 CALM      30.04S
6HR MIN TEMP:  69; 6HR MAX TEMP:  74;

BARKSDALE AFB  NOT AVBL
DTN SHREVEPORT PTCLDY    71  67  87 CALM      30.05S
6HR MIN TEMP:  70; 6HR MAX TEMP:  76;


$$

LAZ014-016-271300-
NORTHEAST LOUISIANA

CITY           SKY/WX    TMP DP  RH WIND       PRES   REMARKS
MONROE         MOSUNNY   69  66  90 CALM      30.06R
6HR MIN TEMP:  67; 6HR MAX TEMP:  71;

TALLULAH       SUNNY     68  66  93 CALM      30.06S
6HR MIN TEMP:  65; 6HR MAX TEMP:  69;


$$





USA.gov is the U.S. government's official web portal to all federal, state and local government web resources and services.